STARLINK-5255 (54208 NORAD) Tracking and Keplerian Element Data

This shows tracking and keplerian element data for the satellite.

Feedback or suggestion? Click here.




ElementValue
Catalog54208
NameSTARLINK-5255
Epoch Orbit407
Epoch Day325.25001157
Epoch Year2022
RAAN24.0684
Inclination53.2175
Eccentricity0.0003002
Argument of Perigee9.9585
Mean Anonmoly30.5927
Mean Motion15.73185094
Decay Rate0.00032371
L11 54208U 22141BD 22325.25001157 .00032371 00000+0 23429-3 0 9992
L22 54208 53.2175 24.0684 0003002 9.9585 30.5927 15.73185094 4079



Live tracking and technical data element details for STARLINK-5255 (NORAD 54208). STARLINK-5255 can be tracked NOW for your location showing map with azimuth and elevation plus other details from your city location.







IsCatalogInMostPopularTable: catalog: 54208, numindb: 7
Update: records affected: 1



GetName: 54208 STARLINK-5255

Hit Count: updated at: Sun, 04 Dec 2022 22:35:07 GMT